VARKAUS current weather conditions

sailwx.info

Wind from 330 at 10 knots

Air temperature 8.0° C
Visibility: greater than 5.4 NM
Dewpoint 4.0° C

Last reported at 2014-Sep-30 10:20 UTC.
Time now 2014-Sep-30 11:57 UTC

Location: N 62°10' E 027°52'.
View on Google Maps.

See reports from other nearby stations

  
Tides and Currents Weather Stations Pressure Air Temp Water Temp Dewpoint Dewpoint Depression Visibility Wind Speed Wind Dir Waves Ship Positions
date/time (UTC)wind fromknots sea level pressurealtimeterstation pressurevisibilityair tempwater tempwave heightnotes
2014-Sep-30 10:20 330 10 5.4 8.0
2014-Sep-30 09:50 330 10 5.4 7.0
2014-Sep-30 09:20 320 10 5.4 7.0
2014-Sep-30 08:50 330 13 5.4 7.0
2014-Sep-30 08:20 320 13 5.4 8.0
2014-Sep-30 07:50 320 13 5.4 8.0
2014-Sep-30 07:20 330 10 5.4 7.0
2014-Sep-30 06:50 320 11 5.4 7.0
2014-Sep-30 06:20 320 10 5.4 7.0 Light rain.
2014-Sep-30 05:50 320 11 5.4 8.0
2014-Sep-30 05:20 320 11 5.4 8.0
2014-Sep-30 04:50 320 11 5.4 8.0
2014-Sep-30 04:20 320 11 5.4 8.0
2014-Sep-30 03:50 310 11 5.4 8.0
2014-Sep-30 03:20 310 10 5.4 8.0
2014-Sep-30 02:50 310 13 5.4 9.0
2014-Sep-30 02:20 310 11 5.4 9.0
2014-Sep-30 01:50 310 9 5.4 8.0
2014-Sep-30 01:20 290 8 5.4 8.0
2014-Sep-30 00:50 290 9 5.4 8.0 Light rain.
2014-Sep-30 00:20 290 10 5.4 8.0 Light rain.
2014-Sep-29 23:50 280 9 8.0
2014-Sep-29 23:20 280 10 8.0
2014-Sep-29 22:50 270 9 5.4 8.0 Light rain showers.
2014-Sep-29 22:20 270 8 5.4 8.0
2014-Sep-29 21:50 270 10 5.4 8.0 Light rain showers.
2014-Sep-29 21:20 270 8 8.0
2014-Sep-29 20:50 270 7 8.0
2014-Sep-29 20:20 270 7 8.0
2014-Sep-29 19:50 270 6 8.0
2014-Sep-29 19:20 250 3 7.0
2014-Sep-29 18:50 230 3 5.4 7.0
2014-Sep-29 18:20 220 3 7.0
2014-Sep-29 17:50 250 2 7.0
2014-Sep-29 17:20 250 3 6.0
2014-Sep-29 16:50 270 6 8.0
2014-Sep-29 16:20 270 4 7.0
2014-Sep-29 15:50 280 5 5.4 8.0
2014-Sep-29 15:20 250 4 5.4 8.0 Light rain showers.
2014-Sep-29 14:50 280 11 gusting 24 3.8 9.0 Rain showers.
2014-Sep-29 14:20 290 11 5.4 9.0 Rain showers.
2014-Sep-29 13:50 280 10 5.413.0 Light rain showers.
2014-Sep-29 13:20 5.412.0 Light rain showers.
2014-Sep-29 12:50 250 6 13.0
2014-Sep-29 12:20 270 9 13.0
2014-Sep-29 11:50 270 12 13.0
2014-Sep-29 11:20 260 9 13.0
2014-Sep-29 10:50 260 9 13.0
2014-Sep-29 10:20 270 12 13.0
2014-Sep-29 09:50 270 11 12.0
2014-Sep-29 09:20 260 8 12.0
2014-Sep-29 08:50 270 12 11.0
2014-Sep-29 08:20 270 10 11.0
2014-Sep-29 07:50 270 8 10.0
2014-Sep-29 07:20 270 6 10.0
2014-Sep-29 06:50 260 8 10.0
2014-Sep-29 06:20 270 8 9.0
2014-Sep-29 05:50 260 7 9.0
2014-Sep-29 05:20 260 5 9.0
2014-Sep-29 04:50 250 5 9.0
2014-Sep-29 04:20 260 6 9.0
2014-Sep-29 03:50 260 6 9.0
2014-Sep-29 03:20 260 6 9.0
2014-Sep-29 02:50 250 5 10.0
2014-Sep-29 02:20 240 5 10.0
2014-Sep-29 01:50 260 6 5.410.0 Light rain showers.
2014-Sep-29 01:20 260 6 5.410.0 Light rain.
2014-Sep-29 00:50 250 6 10.0
2014-Sep-29 00:20 250 6 10.0
2014-Sep-28 23:50 250 5 10.0
2014-Sep-28 23:20 250 4 10.0
2014-Sep-28 22:50 250 3 10.0
2014-Sep-28 22:20 250 3 10.0
2014-Sep-28 21:50 240 3 10.0
2014-Sep-28 21:20 260 3 10.0
2014-Sep-28 20:50 260 5 11.0
2014-Sep-28 20:20 250 4 10.0
2014-Sep-28 19:50 240 4 10.0
2014-Sep-28 19:20 230 2 10.0
2014-Sep-28 18:50 200 1 5.410.0 Light rain showers.
2014-Sep-28 18:20 5.410.0 Light rain.
2014-Sep-28 17:50 5.410.0 Light rain.
2014-Sep-28 17:20 5.410.0 Light rain.
2014-Sep-28 16:50 5.410.0 Light rain.
2014-Sep-28 16:20 5.410.0 Light rain.
2014-Sep-28 15:50 5.411.0 Light rain.
2014-Sep-28 15:20 210 1 11.0
2014-Sep-28 14:50 5.411.0
2014-Sep-28 14:20 250 2 5.411.0 Light rain showers.
2014-Sep-28 13:50 250 3 5.412.0 Light rain.
2014-Sep-28 13:20 280 7 12.0
2014-Sep-28 11:20 270 8 12.0